Regional Weather Roundup
Issued by NWS

Home | Current Version | Previous Version | Text Only | Print | Product List | Glossary On
Versions: 1 2 3 4 5 6 7 8 9 10 11 12 13 14 15 16 17 18 19 20 21 22 23 24 25 26 27 28 29 30 31 32 33 34 35 36 37 38 39 40 41 42 43 44 45 46 47 48 49 50
000
ASUS46 KPQR 050610
RWROR

OREGON REGIONAL WEATHER ROUNDUP
NATIONAL WEATHER SERVICE PORTLAND OR
1100 PM PDT FRI SEP 04 2015

NOTE: "FAIR" INDICATES FEW OR NO CLOUDS BELOW 12,000 FEET WITH
NO SIGNIFICANT WEATHER AND/OR OBSTRUCTIONS TO VISIBILITY.

ORZ001>013-050700-
NORTHWEST OREGON


CITY           SKY/WX    TMP DP  RH WIND       PRES   REMARKS
ASTORIA        CLEAR     57  51  80 N9        30.02S
6HR MIN TEMP:  57; 6HR MAX TEMP:  62; 6HR PCP: TRACE;

NEWPORT        CLEAR     48  46  93 CALM      30.08S
PORTLAND       PTCLDY    58  49  72 W8        30.00R
6HR MIN TEMP:  57; 6HR MAX TEMP:  68;

VANCOUVER WA   CLEAR     56  47  71 NW5       30.00R
6HR MIN TEMP:  56; 6HR MAX TEMP:  66;

SCAPPOOSE      CLEAR     55  45  68 NW7       30.00R
6HR MIN TEMP:  54; 6HR MAX TEMP:  67;

HILLSBORO      CLEAR     52  47  83 W5        30.01R
6HR MIN TEMP:  52; 6HR MAX TEMP:  65;

AURORA         CLEAR     50  47  89 S5        30.02R
6HR MIN TEMP:  50; 6HR MAX TEMP:  63;

MCMINNVILLE    CLEAR     49  46  90 SW6       30.02R
6HR MIN TEMP:  48; 6HR MAX TEMP:  63; 6HR PCP:  0.23;

SALEM          CLEAR     55  45  68 W8        30.01R
6HR MIN TEMP:  55; 6HR MAX TEMP:  67; 6HR PCP: TRACE;

CORVALLIS      CLEAR     50  45  81 NW3       30.04S
EUGENE         PTCLDY    50  47  89 S6        30.04R
6HR MIN TEMP:  50; 6HR MAX TEMP:  62; 6HR PCP: TRACE;

$$

ORZ021-028-050700-
SOUTHWEST OREGON


CITY           SKY/WX    TMP DP  RH WIND       PRES   REMARKS
NORTH BEND     CLEAR     54  52  94 SE5       30.07S
6HR MIN TEMP:  54; 6HR MAX TEMP:  64;

BROOKINGS      CLEAR     54  52  93 NE3       30.03S
ROSEBURG       MOCLDY    53  48  83 CALM      30.06R
6HR MIN TEMP:  52; 6HR MAX TEMP:  65; 6HR PCP:  0.01;

SEXTON SUMMIT  CLOUDY    41  41 100 VRB3      30.04R FOG
6HR MIN TEMP:  40; 6HR MAX TEMP:  48; 6HR PCP: TRACE;

MEDFORD        CLOUDY    55  42  61 CALM      30.04R
6HR MIN TEMP:  55; 6HR MAX TEMP:  65; 6HR PCP:  0.02;

$$

ORZ014>016-041-050700-
COLUMBIA GORGE


CITY           SKY/WX    TMP DP  RH WIND       PRES   REMARKS
TROUTDALE      PTCLDY    57  47  69 W5        29.99R
6HR MIN TEMP:  56; 6HR MAX TEMP:  70;

THE DALLES     PTCLDY    55  45  68 NW13      29.94R
6HR MIN TEMP:  55; 6HR MAX TEMP:  73;

$$

ORZ029>031-041-044-049-050-061>064-502-503-505>511-050700-
EASTERN OREGON


CITY           SKY/WX    TMP DP  RH WIND       PRES   REMARKS
REDMOND        MOCLDY    46  36  68 W7        29.97S
6HR MIN TEMP:  46; 6HR MAX TEMP:  55; 6HR PCP:  0.01;

BEND           MOCLDY    43  39  87 W5        29.98S
PRINEVILLE     CLOUDY    46  43  87 W5        29.97S
KLAMATH FALLS  PTCLDY    42  32  67 NW7       30.01R
6HR MIN TEMP:  41; 6HR MAX TEMP:  59;

LAKEVIEW       PTCLDY    34  28  80 W6          N/A  WCI  29
HERMISTON      LGT RAIN  55  47  74 SW13      29.87R
6HR MIN TEMP:  55; 6HR MAX TEMP:  67; 6HR PCP:  0.03;

PENDLETON      LGT RAIN  52  43  71 SW13      29.87S
6HR MIN TEMP:  52; 6HR MAX TEMP:  58; 6HR PCP:  0.01;

JOHN DAY       DRIZZLE   44  39  82 W8        29.93R
MEACHAM        LGT RAIN  42  40  92 CALM      29.89S
6HR MIN TEMP:  42; 6HR MAX TEMP:  49; 6HR PCP:  0.09;

LA GRANDE      CLOUDY    46  34  61 W16       29.86S
6HR MIN TEMP:  46; 6HR MAX TEMP:  59; 6HR PCP:  0.20;

BAKER CITY     HVY RAIN  45  42  89 SW8G17    29.87S
6HR MIN TEMP:  45; 6HR MAX TEMP:  57; 6HR PCP:  0.05;

BURNS          CLOUDY    41  39  93 W6        29.93R
6HR MIN TEMP:  41; 6HR MAX TEMP:  52; 6HR PCP:  0.08;

ROME             N/A     42  30  62 S7        29.92R
6HR MIN TEMP:  42; 6HR MAX TEMP:  59;

ONTARIO        CLOUDY    50  43  77 SW7       29.87S
6HR MIN TEMP:  49; 6HR MAX TEMP:  71; 6HR PCP:  0.02;

$$




USA.gov is the U.S. government's official web portal to all federal, state and local government web resources and services.